Powrót do katalogu

STARLINK-5729

AktywnyŁącznośćVLEO
NORAD 55596·PAYLOAD·🇺🇸 United States

Wystrzelony Feb 12, 2023 z Cape Canaveral Space Force Station

Loading…

Następne Przeloty (najbliższe 24 godziny)

TLE

ŚwieżeSource: CelesTrak SupGP

Epoka: Sep 14, 2026, 21:51 UTC

1 55596C 23020AD  26257.91090278 -.00000391  00000+0 -14179-4 0  2572
2 55596  43.0040  16.4608 0001737 281.1268  60.8142 15.27579114    18

Śledź STARLINK-5729 w czasie rzeczywistym z AllMySat

Download on the App Store